Singapore, Singapore

2:10 PM SGT on February 27, 2017 (GMT +0800)
Changi

Weather History for WSSS - October, 2013

Change the Weather History Date:

Tuesday, October 15, 2013

  Actual Average Record
Temperature  
Mean Temperature 78 °F -  
Max Temperature 86 °F 88 °F 93 °F (2004)
Min Temperature 70 °F 74 °F 70 °F (2013)
Cooling Degree Days 13    
Growing Degree Days 28 (Base 50)    
Moisture  
Dew Point 75 °F    
Average Humidity 85    
Maximum Humidity 100    
Minimum Humidity 66    
Precipitation  
Precipitation 2.32 in 0.27 in - ()
Sea Level Pressure  
Sea Level Pressure 29.83 in    
Wind  
Wind Speed 3 mph ()    
Max Wind Speed 10 mph    
Max Gust Speed -    
Visibility 5.2 miles    
Events Rain , Thunderstorm    
Averages and records for this station are not official NWS values.
T = Trace of Precipitation, MM = Missing Value Source: Averaged Metar Reports

Daily Weather History Graph

Daily Weather History Graph

Search for Another Location

Airport or City:

Trip Planner

Search our weather history database for the weather conditions in past years. The results will help you decide how hot, cold, wet, or windy it might be!

Date:

Astronomy

Oct. 15, 2013 Rise Set
Actual Time 6:47 AM SGT 6:52 PM SGT
Civil Twilight 6:26 AM SGT 7:13 PM SGT
Nautical Twilight 6:02 AM SGT 7:37 PM SGT
Astronomical Twilight 5:37 AM SGT 8:01 PM SGT
Moon 3:54 PM SGT (10/15) 3:26 AM SGT (10/15)
Length of Visible Light 12h 46m
Length of Day
12h 04m
Waxing Gibbous, 83% of the Moon is Illuminated
Oct 15
Waxing Gibbous
Oct 19
Full
Oct 27
Last Quarter
Nov 3
New
Nov 10
First Quarter

Hourly Weather History & Observations

Time (SGT) Temp. Heat Index Dew Point Humidity Pressure Visibility Wind Dir Wind Speed Gust Speed Precip Events Conditions
12:00 AM 82.4 °F 90.9 °F 77.0 °F 84% 29.89 in 6.2 mi Variable 3.5 mph - N/A   Mostly Cloudy
12:30 AM 82.4 °F 90.9 °F 77.0 °F 84% 29.86 in 6.2 mi West 3.5 mph - N/A   Mostly Cloudy
1:00 AM 82.4 °F 90.9 °F 77.0 °F 84% 29.86 in 6.2 mi Variable 2.3 mph - N/A   Mostly Cloudy
1:30 AM 82.4 °F 90.9 °F 77.0 °F 84% 29.83 in 6.2 mi Variable 1.2 mph - N/A   Mostly Cloudy
2:00 AM 82 °F - 76 °F 78% 29.84 in 9 mi SW 1.2 mph - -   Haze
2:00 AM 82.4 °F 90.9 °F 77.0 °F 84% 29.83 in 6.2 mi Variable 1.2 mph - N/A   Mostly Cloudy
2:30 AM 82.4 °F 90.9 °F 77.0 °F 84% 29.83 in 6.2 mi Variable 2.3 mph - N/A   Scattered Clouds
3:00 AM 82.4 °F 90.9 °F 77.0 °F 84% 29.80 in 6.2 mi Variable 2.3 mph - N/A   Scattered Clouds
3:30 AM 75.2 °F - 73.4 °F 94% 29.80 in 1.0 mi SW 6.9 mph - N/A Rain , Thunderstorm Heavy Thunderstorms and Rain
4:00 AM 75.2 °F - 75.2 °F 100% 29.80 in 3.1 mi Variable 2.3 mph - N/A Rain , Thunderstorm Light Thunderstorms and Rain
4:30 AM 75.2 °F - 73.4 °F 94% 29.80 in 1.0 mi South 4.6 mph - N/A Rain , Thunderstorm Heavy Thunderstorms and Rain
5:00 AM 74 °F - 73 °F 97% 29.81 in 1 mi NE 10.4 mph - - Rain , Thunderstorm Thunderstorms and Rain
5:00 AM 73.4 °F - 73.4 °F 100% 29.80 in 1.2 mi NE 10.4 mph - N/A Rain , Thunderstorm Heavy Thunderstorms and Rain
5:30 AM 69.8 °F - 69.8 °F 100% 29.86 in 0.3 mi SW 8.1 mph - N/A Rain , Thunderstorm Heavy Thunderstorms and Rain
6:00 AM 71.6 °F - 71.6 °F 100% 29.83 in 1.9 mi Variable 1.2 mph - N/A Rain , Thunderstorm Heavy Thunderstorms and Rain
6:30 AM 73.4 °F - 73.4 °F 100% 29.83 in 3.7 mi Calm Calm - N/A Rain , Thunderstorm Light Thunderstorms and Rain
7:00 AM 73.4 °F - 73.4 °F 100% 29.83 in 6.2 mi Variable 2.3 mph - N/A   Mostly Cloudy
7:30 AM 75.2 °F - 75.2 °F 100% 29.83 in 6.2 mi SSW 3.5 mph - N/A   Mostly Cloudy
8:00 AM 75 °F - 75 °F 99% 29.87 in 3 mi SW 3.5 mph - - Rain , Thunderstorm Thunderstorms and Rain
8:00 AM 75.2 °F - 75.2 °F 100% 29.86 in 3.1 mi SW 3.5 mph - N/A Rain , Thunderstorm Thunderstorms and Rain
8:30 AM 77.0 °F - 75.2 °F 94% 29.89 in 2.2 mi Variable 2.3 mph - N/A Rain , Thunderstorm Heavy Thunderstorms and Rain
9:00 AM 77.0 °F - 77.0 °F 100% 29.89 in 1.6 mi Variable 2.3 mph - N/A Rain , Thunderstorm Heavy Thunderstorms and Rain
9:30 AM 77.0 °F - 77.0 °F 100% 29.92 in 3.1 mi Variable 2.3 mph - N/A Rain Light Rain
10:00 AM 77.0 °F - 77.0 °F 100% 29.92 in 2.8 mi SSW 3.5 mph - N/A Rain Light Rain
10:30 AM 77.0 °F - 75.2 °F 94% 29.92 in 2.2 mi Variable 2.3 mph - N/A Rain Heavy Rain
11:00 AM 78 °F - 77 °F 96% 29.93 in 3 mi SW 2.3 mph - - Rain Light Rain
11:00 AM 77.0 °F - 77.0 °F 100% 29.92 in 3.1 mi Variable 2.3 mph - N/A Rain Light Rain
11:30 AM 78.8 °F - 75.2 °F 89% 29.89 in 5.0 mi SW 4.6 mph - N/A Rain Light Rain
12:00 PM 80.6 °F 87.1 °F 77.0 °F 89% 29.89 in 6.2 mi SW 3.5 mph - N/A Rain Light Rain
12:30 PM 80.6 °F 88.1 °F 78.8 °F 94% 29.86 in 6.2 mi SSW 4.6 mph - N/A   Scattered Clouds
1:00 PM 82.4 °F 92.4 °F 78.8 °F 89% 29.83 in 6.2 mi SSW 4.6 mph - N/A   Mostly Cloudy
1:30 PM 82.4 °F 90.9 °F 77.0 °F 84% 29.80 in 6.2 mi SW 4.6 mph - N/A   Mostly Cloudy
2:00 PM 84.2 °F 94.1 °F 77.0 °F 79% 29.80 in 6.2 mi SW 4.6 mph - N/A   Scattered Clouds
2:30 PM 84.2 °F 92.3 °F 75.2 °F 74% 29.77 in 6.2 mi SW 4.6 mph - N/A   Scattered Clouds
3:00 PM 82.4 °F 89.5 °F 75.2 °F 79% 29.77 in 6.2 mi SSW 5.8 mph - N/A   Scattered Clouds
3:30 PM 84.2 °F 92.3 °F 75.2 °F 74% 29.77 in 6.2 mi SW 5.8 mph - N/A   Mostly Cloudy
4:00 PM 86.0 °F 95.1 °F 75.2 °F 70% 29.77 in 6.2 mi SW 4.6 mph - N/A   Mostly Cloudy
4:30 PM 84.2 °F 92.3 °F 75.2 °F 74% 29.77 in 6.2 mi SW 3.5 mph - N/A   Mostly Cloudy
5:00 PM 85 °F - 76 °F 68% 29.78 in 10 mi SW 4.6 mph - -   Haze
5:00 PM 86.0 °F 95.1 °F 75.2 °F 70% 29.77 in 6.2 mi SW 4.6 mph - N/A   Mostly Cloudy
5:30 PM 86.0 °F 93.4 °F 73.4 °F 66% 29.77 in 6.2 mi SSW 4.6 mph - N/A   Mostly Cloudy
6:00 PM 84.2 °F 92.3 °F 75.2 °F 74% 29.77 in 6.2 mi SSW 4.6 mph - N/A   Mostly Cloudy
6:30 PM 84.2 °F 92.3 °F 75.2 °F 74% 29.77 in 6.2 mi SW 3.5 mph - N/A   Mostly Cloudy
7:00 PM 82.4 °F 88.2 °F 73.4 °F 74% 29.77 in 6.2 mi SSW 3.5 mph - N/A   Mostly Cloudy
7:30 PM 82.4 °F 89.5 °F 75.2 °F 79% 29.80 in 6.2 mi Variable 2.3 mph - N/A   Mostly Cloudy
8:00 PM 82 °F - 73 °F 68% 29.82 in 11 mi SSW 2.3 mph - -   Haze
8:00 PM 82.4 °F 88.2 °F 73.4 °F 74% 29.80 in 6.2 mi Variable 2.3 mph - N/A   Mostly Cloudy
8:30 PM 82.4 °F 88.2 °F 73.4 °F 74% 29.83 in 6.2 mi Variable 2.3 mph - N/A   Mostly Cloudy
9:00 PM 82.4 °F 88.2 °F 73.4 °F 74% 29.83 in 6.2 mi Variable 2.3 mph - N/A   Mostly Cloudy
9:30 PM 80.6 °F 86.2 °F 75.2 °F 84% 29.86 in 6.2 mi SSW 3.5 mph - N/A   Mostly Cloudy
10:00 PM 82.4 °F 89.5 °F 75.2 °F 79% 29.86 in 6.2 mi SW 3.5 mph - N/A   Mostly Cloudy
10:30 PM 82.4 °F 89.5 °F 75.2 °F 79% 29.86 in 6.2 mi SW 3.5 mph - N/A   Mostly Cloudy
11:00 PM 82 °F - 75 °F 74% 29.86 in 10 mi South 8.1 mph - -   Haze
11:00 PM 82.4 °F 89.5 °F 75.2 °F 79% 29.86 in 6.2 mi South 8.1 mph - N/A   Mostly Cloudy
11:30 PM 82.4 °F 89.5 °F 75.2 °F 79% 29.86 in 6.2 mi SW 3.5 mph - N/A   Mostly Cloudy